Location: Middle Street
(51.7167°N, 0.0333°E)
Time: 18:40:39
(UTC+00:00)

Helios 1A Rocket - Pass Details

Date: 20 January 2021
Orbit: 562 x 587 km, 98.3° (Epoch: 26 February)

Event Time Altitude Azimuth Distance (km) Brightness Sun altitude
Rises 18:35:24 0° 162° (SSE) 2,801 6.3 -19.2°
Reaches altitude 10° 18:37:32 10° 162° (SSE) 1,908 5.5 -19.6°
Maximum altitude 18:41:41 85° 76° (ENE) 597 2.8 -20.2°
Drops below altitude 10° 18:45:52 10° 346° (NNW) 1,925 5.7 -20.8°
Sets 18:48:02 0° 346° (NNW) 2,830 6.6 -21.2°
